080509 A97  0.6-  0.1-    080526 900 (2.0+  0.4-)   080627 232  0.5-  0.1-  

080509 017  0.4+  0.3-    080527 415  0.5-  0.1-    080627 232  1.2-  0.1+  

080509 017  0.1-  0.4-    080527 415  0.5+  0.1+    080628 850  0.3-  0.7-  

080509 017  0.0   0.4-    080528 E85  0.6+  0.3-    080628 850  0.1-  0.2+  

080509 A97  0.1-  0.2-    080528 E85  0.1+  0.0     080628 850  0.2-  0.1+  

080509 017  0.1-  0.1-    080528 E85  0.4+  0.3-    080628 850  0.1-  0.5-  

080509 017  0.1+  0.4-    080528 467  0.3+  0.2-    080628 B20  0.4+  0.4+  

080510 246  0.2+  0.1+    080528 467  0.9+  0.3-    080628 B20  0.6+  0.7+  

080510 246  0.2+  0.2+    080528 467  0.2-  0.3-    080628 B20  0.3+  0.8+  

080510 246  0.2+  0.1+    080529 J47  0.7+  0.1+    080629 844  1.0+  1.1+  

080510 246  0.2+  0.1+    080529 J47  0.5+  0.2+    080629 844 (4.0-  0.5+) 

080510 246  0.3+  0.0     080529 J47  0.4+  0.5+    080629 844 (2.3+  4.2+) 

080510 118  0.2+  0.3-    080529 J47  0.4+  0.5+    080629 844  0.7-  0.1-  

080510 118  0.4+  0.2-    080529 J51  0.7-  0.1-    080629 844  0.1+  0.2+  

080510 J24  0.4+  0.0     080529 J51  0.9-  0.0     080630 423  0.9-  0.6-  

080510 118  0.5+  0.2-    080529 J51  0.4+  0.0     080630 423  0.1-  0.5+  

080510 J24  0.5+  0.2-    080529 H06 (6.7-  6.3-)   080630 215 (1.3-  2.4-) 

080510 J24  0.2+  0.0     080529 415  0.2-  0.4-    080630 215  0.3-  0.7-  

080510 834  0.2+  0.1+    080529 415  0.3+  0.4-    080630 215  0.2+  0.7-  

080510 834  0.3+  0.1+    080529 585  0.7+  1.2+    080701 J24 (2.6-  3.6+) 

080510 834  0.3+  0.2+    080529 585  0.0   1.2+    080701 J24 (2.3-  1.7-) 

080510 H06  0.0   0.1-    080529 585  0.4+  0.7+    080701 J24  0.6-  1.1-  

080510 H06  0.1+  0.1+    080529 585  0.7+  0.5+    080702 423  0.3+  0.5+  

080510 854  0.9-  0.0     080529 585  0.5+  0.8+    080702 423  0.3-  1.5-  

080510 854  0.8-  0.0     080529 585  0.1-  0.4+    080702 J47  0.1+  0.7+  

080510 854  0.5-  0.4+    080529 J45  0.5+  0.3+    080702 J47  1.0+  0.8+  

080510 423  0.3-  0.3-    080530 J45  0.9+  0.0     080702 J47  0.3+  0.4+  

080510 423  0.3-  0.1+    080530 E85  0.2-  0.5-    080703 415 (2.7+  0.5+) 

080511 017  0.5+  0.6+    080530 E85  1.0+  1.4-    080703 415  0.3-  1.4-  

080511 017  0.3+  0.4+    080530 E85  0.1-  1.0-    080704 A06  0.5+  0.3+  

080511 017  0.4+  0.5+    080530 056  0.2-  0.3+    080704 A06  0.7-  0.4+  

080511 017  0.4+  0.6+    080530 056  0.4+  0.3+    080704 A06  0.7-  0.3+  

080511 017  0.3+  0.4+    080530 B42  1.0-  1.4+    080705 349  0.0   1.5+  

080511 017  0.5+  0.5+    080530 056  0.2-  0.1-    080705 349  0.2-  1.8+  

080511 017  0.2+  0.4+    080531 367  0.1+  0.3-    080705 J87  0.3-  0.0   

080511 017  0.1+  0.4+    080531 367  0.0   0.1+    080705 A77  0.6-  0.7+  

080511 J47  0.1-  0.3+    080531 367  0.0   0.3+    080705 J87  0.1+  0.0   

080511 J47  0.0   0.3+    080531 900  0.2-  0.5-    080705 J87  0.3+  0.4-  

080511 J47  0.0   0.3+    080531 900  0.1-  0.4+    080706 J47  0.0   1.0+  

080511 834  0.1+  0.2-    080531 J47  0.1-  0.5+    080706 J47  0.1-  0.3+  

080511 834  0.3+  0.4-    080531 J47  0.1-  0.5+    080706 J47  1.0+  0.1+  

080511 H06  0.5-  0.0     080531 J47  0.0   0.7+    080707 130  0.4-  0.1+  

080511 H06  0.4-  0.0     080531 A97  1.3+  0.2-    080712 808  0.8+  1.9-  

080511 682  0.3-  0.2+    080531 A97  0.7+  0.1-    080712 808 (5.0+  3.7+) 

080511 682  0.4-  0.5+    080531 A97  1.6-  0.7+    080803 204  0.1-  0.6-  

080511 349  0.3-  0.1-    080601 J39 (2.0+  0.1+)   080804 J70 (8.3-  4.1+) 

080511 349  0.5-  0.1-    080601 056  0.8+  0.3-    080804 J70 (6.7-  4.3+) 

080511 349  0.1-  0.1+    080601 056  0.4+  0.1+                            



NAKANO

         **** Don't distribute anyone except personal use only ****

                (C) Copyright 2008 OAA/ComputingSection

write mail from CFAD0::NAKANO on 2008-10-05 06:57:03(JST).





    P/2008 J2 (Beshore)

T 2008 Mar. 20.81754 TT                                 Nakano

q   2.4102282            (2000.0)            P               Q

n   0.15173593     Peri.  131.79819     -0.62966674     +0.75657064

a   3.4813186      Node    98.29922     -0.75511874     -0.54269912

e   0.3076680      Incl.   10.26944     -0.18252530     -0.36479929

P   6.50 (+/- 0.06 day)

From 400 observations 2008 May 6-June 25.



NAKANO

         **** Don't distribute anyone except personal use only ****

                (C) Copyright 2008 OAA/ComputingSection

write mail from CFAD0::NAKANO on 2008-07-01 07:43:53(JST).

 

◎P/2008 J2の軌道と予報位置



 彗星のCCD全光度は,5月12日に12.9等(安部裕史;八束,中野測光),14日に

13.6等(門田健一;上尾)でした.5月6日の美星の観測では,彗星は,恒星状と

のことです.彗星は,アウトバーストを起こし,増光して発見されたのでしょう.



    P/2008 J2 (Beshore)

T 2008 Apr. 1.28564 TT                                  Nakano

q   2.4281547            (2000.0)            P               Q

n   0.15380034     Peri.  135.74053     -0.58040282     +0.79448004

a   3.4500960      Node    97.97830     -0.78823868     -0.49300927

e   0.2962066      Incl.   10.39583     -0.20448070     -0.35460306

P   6.41 (+/-13.31 days)

From 182 observations 2008 May 6-15.

 

Date/        TT  R.A.(2000) Decl.     Delta   r     Daily motion  Mag.  Moon Age

              h    h  m       。  ,                      ,  / PA 。  m1      。

2008 May  15 14  17 01.60  -13 49.9   1.477  2.443     9.4 / 257  13.2   71  .82

          16 14  17 00.97  -13 52.0   1.474  2.443     9.6 / 257  13.2   59  .89

          17 14  17 00.33  -13 54.3   1.470  2.444     9.9 / 257  13.2   48  .94

          18 14  16 59.67  -13 56.5   1.467  2.445    10.2 / 256  13.2   36  .98

          19 14  16 58.99  -13 58.9   1.464  2.445    10.4 / 256  13.2   26 1.00

          20 14  16 58.30  -14 01.4   1.461  2.446    10.6 / 256  13.2   17 1.00

          21 14  16 57.59  -14 03.9   1.459  2.447    10.8 / 256  13.2   13  .98

          22 14  16 56.86  -14 06.5   1.456  2.448    11.0 / 256  13.2   19  .94

          23 14  16 56.13  -14 09.1   1.454  2.448    11.2 / 256  13.2   29  .89

          24 14  16 55.38  -14 11.9   1.453  2.449    11.4 / 256  13.2   40  .83

          25 14  16 54.63  -14 14.7   1.451  2.450    11.5 / 255  13.2   52  .75

          26 14  16 53.86  -14 17.6   1.450  2.451    11.7 / 255  13.2   64  .66

          27 14  16 53.08  -14 20.5   1.449  2.451    11.8 / 255  13.2   76  .56

          28 14  16 52.30  -14 23.6   1.448  2.452    11.9 / 255  13.2   89  .45

          29 14  16 51.51  -14 26.7   1.447  2.453    12.0 / 255  13.2  103  .35

          30 14  16 50.71  -14 29.8   1.447  2.454    12.1 / 254  13.2  116  .24

          31 14  16 49.91  -14 33.1   1.447  2.455    12.1 / 254  13.2  130  .15

     June  1 14  16 49.11  -14 36.4   1.447  2.456    12.2 / 254  13.2  145  .08

NAKANO

         **** Don't distribute anyone except personal use only ****

                (C) Copyright 2008 OAA/ComputingSection

write mail from CFAD0::NAKANO on 2008-05-17 05:47:48(JST).

 

◎P/2008 J2の軌道と予報位置



 彗星のCCD全光度は,5月12日に12.9等(安部裕史;八束,中野測光),14日に

13.6等(門田健一;上尾)でした.5月6日の美星の観測では,彗星は,恒星状と

のことです.彗星は,アウトバーストを起こし,増光して発見されたのでしょう.



    P/2008 J2 (Beshore)

T 2008 Apr. 1.28564 TT                                  Nakano

q   2.4281547            (2000.0)            P               Q

n   0.15380034     Peri.  135.74053     -0.58040282     +0.79448004

a   3.4500960      Node    97.97830     -0.78823868     -0.49300927

e   0.2962066      Incl.   10.39583     -0.20448070     -0.35460306

P   6.41 (+/-13.31 days)

From 182 observations 2008 May 6-15.

 

Date/        TT  R.A.(2000) Decl.     Delta   r     Daily motion  Mag.  Moon Age

              h    h  m       。  ,                      ,  / PA 。  m1      。

2008 May  15 14  17 01.60  -13 49.9   1.477  2.443     9.4 / 257  13.2   71  .82

          16 14  17 00.97  -13 52.0   1.474  2.443     9.6 / 257  13.2   59  .89

          17 14  17 00.33  -13 54.3   1.470  2.444     9.9 / 257  13.2   48  .94

          18 14  16 59.67  -13 56.5   1.467  2.445    10.2 / 256  13.2   36  .98

          19 14  16 58.99  -13 58.9   1.464  2.445    10.4 / 256  13.2   26 1.00

          20 14  16 58.30  -14 01.4   1.461  2.446    10.6 / 256  13.2   17 1.00

          21 14  16 57.59  -14 03.9   1.459  2.447    10.8 / 256  13.2   13  .98

          22 14  16 56.86  -14 06.5   1.456  2.448    11.0 / 256  13.2   19  .94

          23 14  16 56.13  -14 09.1   1.454  2.448    11.2 / 256  13.2   29  .89

          24 14  16 55.38  -14 11.9   1.453  2.449    11.4 / 256  13.2   40  .83

          25 14  16 54.63  -14 14.7   1.451  2.450    11.5 / 255  13.2   52  .75

          26 14  16 53.86  -14 17.6   1.450  2.451    11.7 / 255  13.2   64  .66

          27 14  16 53.08  -14 20.5   1.449  2.451    11.8 / 255  13.2   76  .56

          28 14  16 52.30  -14 23.6   1.448  2.452    11.9 / 255  13.2   89  .45

          29 14  16 51.51  -14 26.7   1.447  2.453    12.0 / 255  13.2  103  .35

          30 14  16 50.71  -14 29.8   1.447  2.454    12.1 / 254  13.2  116  .24

          31 14  16 49.91  -14 33.1   1.447  2.455    12.1 / 254  13.2  130  .15

     June  1 14  16 49.11  -14 36.4   1.447  2.456    12.2 / 254  13.2  145  .08

NAKANO

         **** Don't distribute anyone except personal use only ****

                (C) Copyright 2008 OAA/ComputingSection

write mail from CFAD0::NAKANO on 2008-05-17 05:47:48(JST).



◎C/2008 J2の軌道と予報位置



 上尾の門田健一氏から5月11日の観測が報告されました.氏のCCD全光度は,

13.4等でした.彗星は,発見同夜(5月6日)に守山と美星で観測されていま

したが,天体が彗星状との報告はありませんでした.なお,美星からは,天体

は,恒星状であるという報告がありました.彗星が増光して発見されたのなら

ば,この頃,バーストしたのかも知れません.

 なお,観測は,まだ,放物線にもフィットしますが,残差の状況は,楕円軌

道の方がずっと良いものです.



    P/2008 J2 (Beshore)

T 2008 Apr. 24.15186 TT                                 Nakano

q   2.4561313            (2000.0)            P               Q

n   0.15646088     Peri.  143.22790     -0.48004510     +0.85795381

a   3.4108729      Node    97.41602     -0.84238394     -0.39262504

e   0.2799112      Incl.   10.63179     -0.24483873     -0.33130173

